STARLINK-2170, 47753

Orbit data source: Space-Track

STARLINK-2170, 47753 is a payload satellite owned by SpaceX/Seattle (US) in LEO that was launched on Thu, 04 Mar 2021 UTC via an FALCON 9 launch vehicle from the Air Force Eastern Test Range (AFETR). Payload-class satellites include a variety of spacecraft equipped with specific instruments for various scientific and technological missions. These include communications satellites like Starlink; space stations such as the ISS; scientific satellites like the Hubble; Earth observation satellites from companies like Planet Labs, Umbra, and HawkEye 360; GPS; miniature CubeSats for education and research; and military/defense satellites.

Loading next visibility...
Identifier
47753, 2021-017AH
Orbit
LEO
Country
Flag of USUS
Related business
Manufacturer
SpaceX/Seattle
Mission
Operational Commercial Communications
Bus & Motor
STARLINK, Unknown motor
Mass
260 kg wet, ~248 kg dry
Launch date (UTC)
2021-03-04 (5 years ago)
Launch vehicle
FALCON 9
Launch site
Air Force Eastern Test Range (AFETR)
Object type
Payload
Rocket body
Debris
Shape & HBR
Box + 1 Pan, 10.1 m
Radar Cross Section
13.562 m², Large (>1 m²)

Expand to show TLE details & history
Last TLE update: 22 hours ago

TLE from 22 hours ago
0 STARLINK-2170
1 47753U 21017AH  26235.77651478  .00038033  00000-0  11993-2 0  9992
2 47753  53.1581 146.3293 0001654 133.2148 226.8993 15.32539973303492
Epoch: 2026-08-23T18:38Z
TLE epoch observation values (Epoch: 2026-08-23T18:38:10.876Z)
Latitude
0.00003°
Longitude
-105.28371°
Altitude
469.911 km
Speed
7.632 km/s
True Right ascension
09h 45m 19s
True Declination
0° 00' 00"
Sunlit
Object was in daylight at epoch
Visualization orbit readout
Latitude
Unknown
Longitude
Unknown
Altitude
Unknown
Speed
Unknown
Apparent Right ascension
Unknown
Apparent Declination
Unknown
Sunlit
N/A
Visualization observer readout
Local Sidereal Time
07:39:46
Azimuth
Unknown
Elevation
Unknown
Doppler factor
Unknown
Orbital elements
Apogee altitude
469.627 km
Perigee altitude
467.362 km
Semi-major axis
6,846.631 km
Eccentricity
0.00017
Inclination
53.1581°
RAAN
146.3293°
Arg. of periapsis
133.2148°
True anomaly
226.88546°
Mean anomaly
226.8993°
Eccentric anomaly
226.89238°
Mean motion
3.83114 °/min
Orbital period
93.97 mins
BSTAR
0.0011993
Loading maneuver chart data...
Computing Atmospheric mass density...

Documentation

Showing up to 5 results
|